"Pseudo-MPEC" for CAR6DW2

Created 2024 Sep 6 10:22:08 UT using Find_Orb

Click here for an explanation of pseudo-MPECs

 
 Astrometry: 
     CAR6DW2*1C2024 09 04.28849923 00 35.737-16 48 18.25   ~949b 20.18GVNEOCPG96
     CAR6DW2 1C2024 09 04.30230623 00 34.672-16 49 24.56   ~949b 21.16GVNEOCPG96
     CAR6DW2 1C2024 09 04.30789823 00 34.232-16 49 51.74   ~949b 20.94GVNEOCPG96
     CAR6DW2 1C2024 09 04.31349423 00 33.779-16 50 18.20   ~949b       VNEOCPG96
     CAR6DW2  C2024 09 04.39804323 00 27.256-16 57 02.91   ~94A7 20.2 GVNEOCPH01
     CAR6DW2  C2024 09 04.40090923 00 27.039-16 57 16.48   ~94A7 20.3 GVNEOCPH01
     CAR6DW2  C2024 09 04.40588623 00 26.666-16 57 40.37   ~94A7 20.6 GVNEOCPH01
     CAR6DW2 KC2024 09 04.41020623 00 26.417-16 58 00.66   ~94Ab 21.27GVNEOCPI52
     CAR6DW2  C2024 09 04.41114423 00 26.273-16 58 05.42   ~94A7 20.4 GVNEOCPH01
     CAR6DW2 KC2024 09 04.41851223 00 25.794-16 58 40.98   ~94Ab 20.66GVNEOCPI52
     CAR6DW2 KC2024 09 04.42403323 00 25.376-16 59 07.19   ~94Ab 20.59GVNEOCPI52
     CAR6DW2  C2024 09 04.46250123 00 23.795-17 02 09.19   ~94D7 20.82wXNEOCPF51
     CAR6DW2  C2024 09 04.47370523 00 22.903-17 03 03.32   ~94D7 20.81wXNEOCPF51
     CAR6DW2  C2024 09 04.48487723 00 22.034-17 03 57.01   ~94D7 20.73wXNEOCPF51
     CAR6DW2 KC2024 09 05.26168222 59 30.46 -18 08 09.2    ~95C7 20.5 GXNEOCP858
     CAR6DW2 KC2024 09 05.26703722 59 29.96 -18 08 36.6    ~95C7 20.3 GXNEOCP858
     CAR6DW2 KC2024 09 05.27303122 59 29.48 -18 09 07.2    ~95C7 20.8 GXNEOCP858
     CAR6DW2  C2024 09 05.31386522 59 26.168-18 12 33.43   ~958M 20.6 GVNEOCPH01
     CAR6DW2  C2024 09 05.31683722 59 25.922-18 12 48.67   ~958M 20.5 GVNEOCPH01
     CAR6DW2 !C2024 09 05.32423 22 59 25.65 -18 13 26.8    ~958b 20.0 GVNEOCP673
     CAR6DW2  C2024 09 05.32728022 59 25.060-18 13 41.60   ~958M 20.6 GVNEOCPH01
     CAR6DW2 !C2024 09 05.32924 22 59 25.28 -18 13 52.0    ~958b       VNEOCP673
     CAR6DW2  C2024 09 05.33501922 59 24.422-18 14 20.88   ~958M 20.4 GVNEOCPH01
     CAR6DW2 KC2024 09 05.39631822 59 19.500-18 19 32.88   ~959q 20.94GVNEOCPI52
     CAR6DW2 KC2024 09 05.39822722 59 19.356-18 19 41.66   ~959q 20.44GVNEOCPI52
     CAR6DW2 KC2024 09 05.40013322 59 19.172-18 19 51.74   ~959q 20.35GVNEOCPI52
     CAR6DW2 KC2024 09 05.40203722 59 19.032-18 20 01.90   ~959q 20.71GVNEOCPI52

Station data:
(673) Table Mountain Observatory, Wrightwood  (N34.381485 W117.682170)
   US/California.  Observers J. Chesley, J. Pittichova. Measurer W. M. Owen
   Jr. 0.61-m f/16 reflector + CCD.
(858) Tebbutt Observatory, Edgewood  (N35.093869 W106.220000)  US/New Mexico.
    Observer F. B. Zoltowski. 0.16-m refractor + CCD0.51-m Schmidt-Cassegrain
   + CCD.
(F51) Pan-STARRS 1, Haleakala  (N20.707234 W156.255910)  US/Hawaii.
   Observers J. Bulger, T. Lowe, A. Schultz, M. Willman. Measurers K.
   Chambers, S. Chastel, T. de Boer, L. Denneau, J. Fairlamb, H. Flewelling,
   M. Huber, C.-C. Lin, E. Magnier, Y. Ramanjooloo, R. Wainscoat, R. Weryk.
   1.8-m Ritchey-Chrétien + CCD.
(G96) Mt. Lemmon Survey  (N32.442729 W110.788720)  US/Arizona.  Observer E.
   J. Christensen. 1.5-m reflector + 10K CCD.
(H01) Magdalena Ridge Observatory, Socorro  (N33.984833 W107.189333)  US/New
   Mexico.  Observers W. H. Ryan, E. V. Ryan. Measurer W. H. Ryan. 2.4-m
   f/8.9 reflector + CCD.
(I52) Steward Observatory, Mt. Lemmon Station  (N32.442570 W110.788920)
   US/Arizona.  Observers T. A. Pruyne, B. M. Africano, E. J. Christensen, G.
   A. Farneth, D. C. Fuls, A. R. Gibbs, A. D. Grauer, H. Gröller, J. A.
   Johnson, R. A. Kowalski, S. M. Larson, G. J. Leonard, D. Rankin, R. L.
   Seaman, F. C. Shelly, K. W. Wierzchoś. 1.0-m prime focus + CCD.

Orbital elements:  CAR6DW2
   Perihelion 2024 Nov 17.41096 +/- 0.37 TT =  9:51:46 (JD 2460631.91096)
Epoch 2024 Sep  5.0 TT = JDT 2460558.5   Earth MOID: 0.0158   Ma: 0.0351
M 331.67868414 +/- 0.9              (J2000 ecliptic)             AutoNEOCP
n   0.38579140 +/- 0.011            Peri.  287.20359 +/- 0.10
a   1.86882091 +/- 0.0355           Node   154.63238 +/- 0.035
e   0.6264281 +/- 0.00853           Incl.   16.59777 +/- 0.21
P   2.555/933.129d         H 22.60  G  0.15   U  9.7
q 0.69813895 +/- 0.00276    Q 3.03950286 +/- 0.0736
From 27 observations 2024 Sept. 4-5 (26.7 hr); mean residual 0".25
Residuals in arcseconds: 
240904 G96  .29+  .35+    240904 I52  .05-  .57-    240905 H01  .02-  .26+    
240904 G96  .18+  .08+    240904 I52  .14-  .38-    240905 673  .30-  .06-    
240904 G96  .03+  .35-    240904 F51  .05+  .09+    240905 H01  .02-  .38+    
240904 G96  .31-  .04-    240904 F51  .09-  .05-    240905 673  .33+  .24+    
240904 H01  .02+  .08-    240904 F51  .05+  .08+    240905 H01  .01-  .42+    
240904 H01  .01-  .05+    240905 858  .41+  .09-    240905 I52  .14+  .52-    
240904 H01  .02-  .05-    240905 858  .46-  .28-    240905 I52  .31+  .40+    
240904 I52  .05-  .02+    240905 858  .30-  .43-    240905 I52  .10-  .00     
240904 H01  .03-  .04+    240905 H01  .02-  .41+    240905 I52  .11+  .48-    

Ephemerides (geocentric):
Date (UTC) HH   RA             Dec           delta  r     elong  mag " sig PA
---- --------  ------------   ------------  ------ ------ -----  --- --------
2024 09 06 10  22 58 05.212   -19 48 46.76  .25164 1.2540 166.5 20.8 1.01   7
2024 09 06 11  22 58 01.998   -19 52 33.57  .25129 1.2536 166.4 20.8 1.05   7
2024 09 06 12  22 57 58.773   -19 56 20.95  .25095 1.2531 166.3 20.8 1.10   7
2024 09 06 13  22 57 55.537   -20 00 08.91  .25061 1.2527 166.2 20.8 1.15   7
2024 09 06 14  22 57 52.290   -20 03 57.44  .25026 1.2523 166.2 20.8 1.20   7
2024 09 06 15  22 57 49.031   -20 07 46.55  .24992 1.2519 166.1 20.8 1.25   7
2024 09 06 16  22 57 45.761   -20 11 36.23  .24958 1.2515 166.0 20.8 1.30   7
2024 09 06 17  22 57 42.480   -20 15 26.49  .24923 1.2511 165.9 20.8 1.35   7
2024 09 06 18  22 57 39.188   -20 19 17.33  .24889 1.2506 165.8 20.8 1.41   7
2024 09 06 19  22 57 35.884   -20 23 08.76  .24855 1.2502 165.7 20.8 1.47   7
2024 09 06 20  22 57 32.568   -20 27 00.76  .24821 1.2498 165.7 20.8 1.52   7
2024 09 06 21  22 57 29.241   -20 30 53.34  .24787 1.2494 165.6 20.8 1.58   7
2024 09 06 22  22 57 25.903   -20 34 46.51  .24753 1.2490 165.5 20.8 1.64   7
2024 09 06 23  22 57 22.553   -20 38 40.27  .24719 1.2486 165.4 20.8 1.71   7
2024 09 07 00  22 57 19.191   -20 42 34.61  .24685 1.2481 165.3 20.8 1.77   7
2024 09 07 01  22 57 15.817   -20 46 29.54  .24651 1.2477 165.2 20.8 1.83   7
2024 09 07 02  22 57 12.432   -20 50 25.06  .24618 1.2473 165.1 20.8 1.90   8
2024 09 07 03  22 57 09.035   -20 54 21.17  .24584 1.2469 165.1 20.8 1.97   8
2024 09 07 04  22 57 05.627   -20 58 17.87  .24550 1.2465 165.0 20.8 2.04   8
2024 09 07 05  22 57 02.206   -21 02 15.16  .24517 1.2461 164.9 20.8 2.11   8
2024 09 07 06  22 56 58.773   -21 06 13.05  .24483 1.2456 164.8 20.8 2.18   8
2024 09 07 07  22 56 55.329   -21 10 11.53  .24450 1.2452 164.7 20.8 2.26   8
2024 09 07 08  22 56 51.872   -21 14 10.61  .24416 1.2448 164.6 20.8 2.33   8
2024 09 07 09  22 56 48.404   -21 18 10.28  .24383 1.2444 164.5 20.8 2.41   8
2024 09 07 10  22 56 44.923   -21 22 10.56  .24349 1.2440 164.4 20.8 2.49   8
2024 09 07 11  22 56 41.431   -21 26 11.43  .24316 1.2436 164.4 20.8 2.57   8
2024 09 07 12  22 56 37.926   -21 30 12.90  .24283 1.2431 164.3 20.8 2.65   8
2024 09 07 13  22 56 34.408   -21 34 14.98  .24250 1.2427 164.2 20.8 2.74   8
2024 09 07 14  22 56 30.879   -21 38 17.66  .24216 1.2423 164.1 20.8 2.82   8
2024 09 07 15  22 56 27.337   -21 42 20.94  .24183 1.2419 164.0 20.7 2.91   8
2024 09 07 16  22 56 23.783   -21 46 24.83  .24150 1.2415 163.9 20.7 3.00   8
2024 09 07 17  22 56 20.216   -21 50 29.33  .24117 1.2410 163.8 20.7 3.09   8
2024 09 07 18  22 56 16.637   -21 54 34.44  .24084 1.2406 163.7 20.7 3.18   8
2024 09 07 19  22 56 13.046   -21 58 40.15  .24051 1.2402 163.6 20.7 3.28   8
2024 09 07 20  22 56 09.442   -22 02 46.48  .24019 1.2398 163.6 20.7 3.38   8
2024 09 07 21  22 56 05.825   -22 06 53.41  .23986 1.2394 163.5 20.7 3.47   8
2024 09 07 22  22 56 02.195   -22 11 00.96  .23953 1.2390 163.4 20.7 3.57   8
2024 09 07 23  22 55 58.553   -22 15 09.13  .23920 1.2385 163.3 20.7 3.67   8
2024 09 08 00  22 55 54.898   -22 19 17.91  .23888 1.2381 163.2 20.7 3.78   8
2024 09 08 01  22 55 51.230   -22 23 27.30  .23855 1.2377 163.1 20.7 3.88   8
2024 09 08 02  22 55 47.549   -22 27 37.31  .23823 1.2373 163.0 20.7 3.99   8
2024 09 08 03  22 55 43.856   -22 31 47.94  .23790 1.2369 162.9 20.7 4.10   9
2024 09 08 04  22 55 40.149   -22 35 59.20  .23758 1.2365 162.8 20.7 4.21   9
2024 09 08 05  22 55 36.429   -22 40 11.07  .23725 1.2360 162.7 20.7 4.32   9
2024 09 08 06  22 55 32.697   -22 44 23.56  .23693 1.2356 162.6 20.7 4.43   9
2024 09 08 07  22 55 28.951   -22 48 36.68  .23661 1.2352 162.5 20.7 4.55   9
2024 09 08 08  22 55 25.191   -22 52 50.42  .23628 1.2348 162.5 20.7 4.67   9
2024 09 08 09  22 55 21.419   -22 57 04.79  .23596 1.2344 162.4 20.7 4.79   9